Location: Helsinki
(60.1699°N, 24.9384°E)
Time: 09:54:51
(UTC+02:00)

VELOX 1 - Visible Passes

Search period start: 30 November 2022 00:00
Search period end: 10 December 2022 00:00
Orbit: 622 x 637 km, 98.4° (Epoch: 29 November)

Date Brightness Start Highest point End Pass type
(mag) Time Alt. Az. Time Alt. Az. Time Alt. Az.
30 Nov ? 04:08:03 10° SE 04:08:44 14° SE 04:08:44 14° SE visible
30 Nov ? 05:44:24 10° SSW 05:46:06 21° SSW 05:46:06 21° SSW visible
30 Nov ? 17:26:26 20° E 17:26:32 20° E 17:29:47 10° SE visible
30 Nov ? 19:03:49 70° SW 19:03:49 70° SW 19:07:43 10° SSW visible
30 Nov ? 20:41:11 15° W 20:41:11 15° W 20:42:18 10° W visible
01 Dec ? 04:28:02 10° SE 04:29:04 17° SE 04:29:04 17° SE visible
01 Dec ? 06:05:06 10° SSW 06:06:26 17° SW 06:06:26 17° SW visible
01 Dec ? 17:46:59 28° E 17:46:59 28° E 17:50:43 10° SSE visible
01 Dec ? 19:24:22 50° WSW 19:24:22 50° WSW 19:27:50 10° SW visible
01 Dec ? 21:01:44 10° W 21:01:44 10° W 21:01:46 10° W visible
02 Dec ? 04:48:09 10° SSE 04:49:24 19° SSE 04:49:24 19° SSE visible
02 Dec ? 06:26:02 10° SW 06:26:45 13° SW 06:26:45 13° SW visible
02 Dec ? 18:07:31 38° ESE 18:07:31 38° ESE 18:11:25 10° SSE visible
02 Dec ? 19:44:54 35° WSW 19:44:54 35° WSW 19:47:49 10° SW visible
03 Dec ? 05:08:24 10° SSE 05:09:44 20° S 05:09:44 20° S visible
03 Dec ? 16:50:41 11° E 16:50:41 11° E 16:51:38 10° E visible
03 Dec ? 18:28:03 52° ESE 18:28:03 52° ESE 18:31:56 10° S visible
03 Dec ? 20:05:25 25° W 20:05:25 25° W 20:07:40 10° WSW visible
04 Dec ? 05:28:47 10° S 05:30:04 19° S 05:30:04 19° S visible
04 Dec ? 17:11:11 15° E 17:11:11 15° E 17:13:32 10° ESE visible
04 Dec ? 18:48:33 63° SSE 18:48:33 63° SSE 18:52:18 10° SSW visible
04 Dec ? 20:25:56 18° W 20:25:56 18° W 20:27:24 10° WSW visible
05 Dec ? 04:12:50 10° SE 04:13:02 11° SE 04:13:02 11° SE visible
05 Dec ? 05:49:19 10° SSW 05:50:24 16° SSW 05:50:24 16° SSW visible
05 Dec ? 17:31:42 21° E 17:31:42 21° E 17:34:44 10° SE visible
05 Dec ? 19:09:03 55° SW 19:09:03 55° SW 19:12:30 10° SSW visible
05 Dec ? 20:46:25 12° W 20:46:25 12° W 20:46:58 10° W visible
06 Dec ? 04:32:49 10° SE 04:33:22 13° SE 04:33:22 13° SE visible
06 Dec ? 06:10:02 10° SSW 06:10:44 14° SW 06:10:44 14° SW visible
06 Dec ? 17:52:11 29° ESE 17:52:11 29° ESE 17:55:36 10° SSE visible
06 Dec ? 19:29:33 41° WSW 19:29:33 41° WSW 19:32:35 10° SW visible
07 Dec ? 04:52:56 10° SSE 04:53:42 15° SSE 04:53:42 15° SSE visible
07 Dec ? 06:30:59 10° SW 06:31:04 10° SW 06:31:04 10° SW visible
07 Dec ? 18:12:39 39° ESE 18:12:39 39° ESE 18:16:15 10° S visible
07 Dec ? 19:50:01 29° WSW 19:50:01 29° WSW 19:52:31 10° SW visible
08 Dec ? 05:13:11 10° S 05:14:02 16° S 05:14:02 16° S visible
08 Dec ? 16:55:45 12° E 16:55:45 12° E 16:56:49 10° ESE visible
08 Dec ? 18:33:07 51° SE 18:33:07 51° SE 18:36:43 10° S visible
08 Dec ? 20:10:29 21° W 20:10:29 21° W 20:12:20 10° WSW visible
09 Dec ? 05:33:35 10° S 05:34:22 15° S 05:34:22 15° S visible
09 Dec ? 17:16:13 16° E 17:16:13 16° E 17:18:28 10° SE visible
09 Dec ? 18:53:35 56° S 18:53:35 56° S 18:57:02 10° SSW visible
09 Dec ? 20:30:56 15° W 20:30:56 15° W 20:32:00 10° WSW visible
